When you browse on this site, cookies collect data to enhance your experience and personalize the content and advertising you see.
Visit our Privacy Policy to learn more. By continuing to use the site, you agree to this use of cookies and data.
  • En España
  • Lista de países
  • Para 7 días
  • Temperatura del agua
  • El tiempo en el mapa
  • Informadores
  • user-avatar
    Iniciar sesión

    Tiempo cada hora Punta Cana

    Hoy, 22 Octubre, Martes

    Tiempo Temperatura Precipitaciones Viento Presión Humedad
    00:00 +28°C° 0 mm 4 mps 760 mmHg 85%
    01:00 +28°C° 0 mm 5 mps 761 mmHg 84%
    02:00 +28°C° 0.4 mm 4 mps 760 mmHg 85%
    03:00 +28°C° 0.4 mm 4 mps 760 mmHg 86%
    04:00 +28°C° 0.4 mm 4 mps 760 mmHg 87%
    05:00 +28°C° 0.8 mm 4 mps 760 mmHg 85%
    06:00 +29°C° 0.8 mm 5 mps 761 mmHg 83%
    07:00 +29°C° 0.8 mm 5 mps 761 mmHg 81%
    08:00 +30°C° 0.4 mm 5 mps 761 mmHg 76%
    09:00 +32°C° 0.4 mm 5 mps 761 mmHg 71%
    10:00 +33°C° 0.4 mm 5 mps 761 mmHg 66%
    11:00 +33°C° 0.9 mm 5 mps 760 mmHg 66%
    12:00 +33°C° 0.9 mm 5 mps 760 mmHg 65%
    13:00 +33°C° 0.9 mm 5 mps 759 mmHg 65%
    14:00 +33°C° 0.8 mm 5 mps 759 mmHg 68%
    15:00 +32°C° 0.8 mm 5 mps 759 mmHg 71%
    16:00 +30°C° 0.8 mm 4 mps 759 mmHg 74%
    17:00 +30°C° 0.2 mm 4 mps 759 mmHg 78%
    18:00 +29°C° 0.2 mm 4 mps 759 mmHg 82%
    19:00 +28°C° 0.2 mm 4 mps 759 mmHg 86%
    20:00 +28°C° 0.1 mm 4 mps 760 mmHg 86%
    21:00 +28°C° 0.1 mm 4 mps 760 mmHg 86%
    22:00 +28°C° 0.1 mm 4 mps 760 mmHg 86%
    23:00 +28°C° 0.4 mm 3 mps 759 mmHg 86%

    Mañana, 23 Octubre, Miércoles

    Tiempo Temperatura Precipitaciones Viento Presión Humedad
    00:00 +27°C° 0.4 mm 3 mps 759 mmHg 86%
    01:00 +27°C° 0.4 mm 2 mps 759 mmHg 86%
    02:00 +27°C° 1.2 mm 2 mps 759 mmHg 86%
    03:00 +27°C° 1.2 mm 2 mps 759 mmHg 86%
    04:00 +27°C° 1.2 mm 3 mps 759 mmHg 85%
    05:00 +28°C° 0.1 mm 2 mps 759 mmHg 83%
    06:00 +29°C° 0.1 mm 2 mps 759 mmHg 81%
    07:00 +29°C° 0.1 mm 2 mps 760 mmHg 79%
    08:00 +30°C° 0.1 mm 2 mps 760 mmHg 74%
    09:00 +31°C° 0.1 mm 3 mps 760 mmHg 68%
    10:00 +33°C° 0.1 mm 3 mps 761 mmHg 62%
    11:00 +34°C° 0.3 mm 3 mps 760 mmHg 62%
    12:00 +34°C° 0.3 mm 3 mps 759 mmHg 61%
    13:00 +34°C° 0.3 mm 3 mps 759 mmHg 61%
    14:00 +33°C° 0.1 mm 4 mps 759 mmHg 64%
    15:00 +32°C° 0.1 mm 4 mps 759 mmHg 67%
    16:00 +32°C° 0.1 mm 4 mps 759 mmHg 70%
    17:00 +29°C° 0.1 mm 4 mps 759 mmHg 75%
    18:00 +28°C° 0.1 mm 4 mps 759 mmHg 80%
    19:00 +27°C° 0.1 mm 5 mps 760 mmHg 85%
    20:00 +27°C° 0 mm 4 mps 760 mmHg 85%
    21:00 +27°C° 0 mm 4 mps 760 mmHg 86%
    22:00 +27°C° 0 mm 4 mps 760 mmHg 87%
    23:00 +27°C° 0 mm 3 mps 760 mmHg 85%

    Pasado mañana, 24 Octubre, Jueves

    Tiempo Temperatura Precipitaciones Viento Presión Humedad
    00:00 +27°C° 0 mm 3 mps 760 mmHg 83%
    01:00 +27°C° 0 mm 3 mps 759 mmHg 82%
    02:00 +27°C° 0 mm 3 mps 759 mmHg 83%
    03:00 +27°C° 0 mm 2 mps 759 mmHg 84%
    04:00 +27°C° 0 mm 2 mps 759 mmHg 85%
    05:00 +28°C° 0 mm 2 mps 759 mmHg 82%
    06:00 +28°C° 0 mm 2 mps 760 mmHg 80%
    07:00 +29°C° 0 mm 2 mps 760 mmHg 77%
    08:00 +30°C° 0 mm 2 mps 760 mmHg 71%
    09:00 +31°C° 0 mm 3 mps 761 mmHg 65%
    10:00 +33°C° 0 mm 3 mps 761 mmHg 59%
    11:00 +34°C° 0 mm 3 mps 760 mmHg 59%
    12:00 +34°C° 0 mm 3 mps 760 mmHg 58%
    13:00 +34°C° 0 mm 3 mps 759 mmHg 58%
    14:00 +32°C° 0.1 mm 2 mps 759 mmHg 61%
    15:00 +31°C° 0.1 mm 2 mps 759 mmHg 64%
    16:00 +31°C° 0.1 mm 2 mps 759 mmHg 68%
    17:00 +30°C° 0.1 mm 2 mps 759 mmHg 71%
    18:00 +29°C° 0.1 mm 2 mps 760 mmHg 75%
    19:00 +28°C° 0.1 mm 2 mps 760 mmHg 78%
    20:00 +28°C° 0.2 mm 2 mps 760 mmHg 79%
    21:00 +27°C° 0.2 mm 2 mps 760 mmHg 80%
    22:00 +27°C° 0.2 mm 2 mps 760 mmHg 81%
    23:00 +27°C° 0.5 mm 2 mps 760 mmHg 82%

    25 Octubre, Viernes

    Tiempo Temperatura Precipitaciones Viento Presión Humedad
    00:00 +27°C° 0.5 mm 2 mps 760 mmHg 84%
    01:00 +27°C° 0.5 mm 3 mps 759 mmHg 85%
    02:00 +27°C° 0.1 mm 2 mps 760 mmHg 85%
    03:00 +26°C° 0.1 mm 2 mps 760 mmHg 86%
    04:00 +26°C° 0.1 mm 2 mps 760 mmHg 86%
    05:00 +27°C° 0 mm 2 mps 760 mmHg 84%
    06:00 +28°C° 0 mm 3 mps 761 mmHg 82%
    07:00 +29°C° 0 mm 3 mps 761 mmHg 80%
    08:00 +30°C° 0 mm 4 mps 761 mmHg 76%
    09:00 +32°C° 0 mm 4 mps 761 mmHg 71%
    10:00 +33°C° 0 mm 4 mps 761 mmHg 67%
    11:00 +33°C° 0.1 mm 4 mps 761 mmHg 67%
    12:00 +33°C° 0.1 mm 4 mps 760 mmHg 66%
    13:00 +33°C° 0.1 mm 4 mps 760 mmHg 65%
    14:00 +33°C° 0 mm 3 mps 759 mmHg 67%
    15:00 +31°C° 0 mm 3 mps 759 mmHg 69%
    16:00 +31°C° 0 mm 2 mps 759 mmHg 71%
    17:00 +29°C° 0 mm 2 mps 760 mmHg 75%
    18:00 +28°C° 0 mm 2 mps 760 mmHg 79%
    19:00 +27°C° 0 mm 2 mps 760 mmHg 83%
    20:00 +27°C° 0.1 mm 2 mps 761 mmHg 84%
    21:00 +27°C° 0.1 mm 3 mps 761 mmHg 84%
    22:00 +27°C° 0.1 mm 3 mps 761 mmHg 85%
    23:00 +27°C° 0.2 mm 3 mps 760 mmHg 86%

    26 Octubre, Sábado

    Tiempo Temperatura Precipitaciones Viento Presión Humedad
    00:00 +27°C° 0.2 mm 3 mps 760 mmHg 87%
    01:00 +27°C° 0.2 mm 2 mps 760 mmHg 88%
    02:00 +27°C° 0.1 mm 2 mps 760 mmHg 88%
    03:00 +27°C° 0.1 mm 2 mps 760 mmHg 88%
    04:00 +27°C° 0.1 mm 1 mps 760 mmHg 88%
    05:00 +27°C° 0 mm 2 mps 760 mmHg 85%
    06:00 +28°C° 0 mm 2 mps 760 mmHg 83%
    07:00 +28°C° 0 mm 2 mps 761 mmHg 80%
    08:00 +30°C° 0.1 mm 3 mps 761 mmHg 75%
    09:00 +31°C° 0.1 mm 3 mps 761 mmHg 70%
    10:00 +33°C° 0.1 mm 4 mps 761 mmHg 64%
    11:00 +33°C° 0 mm 4 mps 761 mmHg 63%
    12:00 +33°C° 0 mm 3 mps 760 mmHg 61%
    13:00 +34°C° 0 mm 3 mps 760 mmHg 60%
    14:00 +33°C° 0 mm 3 mps 760 mmHg 64%
    15:00 +31°C° 0 mm 3 mps 760 mmHg 67%
    16:00 +31°C° 0 mm 3 mps 760 mmHg 70%
    17:00 +30°C° 0 mm 3 mps 760 mmHg 75%
    18:00 +29°C° 0 mm 3 mps 760 mmHg 80%
    19:00 +28°C° 0 mm 3 mps 760 mmHg 84%
    20:00 +28°C° 0 mm 3 mps 761 mmHg 85%
    21:00 +27°C° 0 mm 3 mps 761 mmHg 85%
    22:00 +27°C° 0 mm 2 mps 761 mmHg 86%
    23:00 +27°C° 0 mm 2 mps 761 mmHg 86%

    27 Octubre, Domingo

    Tiempo Temperatura Precipitaciones Viento Presión Humedad
    00:00 +27°C° 0 mm 2 mps 760 mmHg 86%
    01:00 +27°C° 0 mm 2 mps 760 mmHg 86%
    02:00 +27°C° 0 mm 2 mps 760 mmHg 86%
    03:00 +27°C° 0 mm 2 mps 760 mmHg 87%
    04:00 +27°C° 0 mm 2 mps 760 mmHg 87%
    05:00 +27°C° 0 mm 2 mps 760 mmHg 85%
    06:00 +28°C° 0 mm 3 mps 760 mmHg 82%
    07:00 +29°C° 0 mm 3 mps 761 mmHg 79%
    08:00 +30°C° 0 mm 3 mps 761 mmHg 74%
    09:00 +31°C° 0 mm 3 mps 761 mmHg 69%
    10:00 +33°C° 0 mm 4 mps 761 mmHg 64%
    11:00 +34°C° 0 mm 4 mps 761 mmHg 62%
    12:00 +34°C° 0 mm 3 mps 760 mmHg 60%
    13:00 +34°C° 0 mm 3 mps 760 mmHg 59%
    14:00 +33°C° 0 mm 3 mps 760 mmHg 62%
    15:00 +31°C° 0 mm 3 mps 759 mmHg 65%
    16:00 +31°C° 0 mm 3 mps 759 mmHg 68%
    17:00 +30°C° 0 mm 3 mps 760 mmHg 72%
    18:00 +29°C° 0 mm 3 mps 760 mmHg 76%
    19:00 +27°C° 0 mm 3 mps 760 mmHg 79%
    20:00 +27°C° 0.2 mm 3 mps 760 mmHg 82%
    21:00 +27°C° 0.2 mm 3 mps 761 mmHg 84%
    22:00 +27°C° 0.2 mm 4 mps 761 mmHg 86%
    23:00 +27°C° 0.3 mm 3 mps 761 mmHg 86%

    28 Octubre, Lunes

    Tiempo Temperatura Precipitaciones Viento Presión Humedad
    00:00 +27°C° 0.3 mm 3 mps 760 mmHg 86%
    01:00 +27°C° 0.3 mm 3 mps 760 mmHg 86%
    02:00 +27°C° 0 mm 3 mps 760 mmHg 86%
    03:00 +27°C° 0 mm 3 mps 760 mmHg 87%
    04:00 +27°C° 0 mm 3 mps 760 mmHg 87%
    05:00 +28°C° 0 mm 4 mps 760 mmHg 85%
    06:00 +29°C° 0 mm 4 mps 760 mmHg 83%
    07:00 +29°C° 0 mm 5 mps 761 mmHg 81%
    08:00 +30°C° 0.2 mm 5 mps 761 mmHg 76%
    09:00 +32°C° 0.2 mm 5 mps 761 mmHg 72%
    10:00 +33°C° 0.2 mm 6 mps 761 mmHg 68%
    11:00 +33°C° 0.2 mm 5 mps 761 mmHg 67%
    12:00 +33°C° 0.2 mm 5 mps 760 mmHg 67%
    13:00 +33°C° 0.2 mm 5 mps 760 mmHg 66%
    14:00 +33°C° 0.4 mm 5 mps 760 mmHg 70%
    15:00 +32°C° 0.4 mm 4 mps 759 mmHg 73%
    16:00 +30°C° 0.4 mm 4 mps 759 mmHg 77%
    17:00 +29°C° 0.7 mm 4 mps 759 mmHg 80%
    18:00 +28°C° 0.7 mm 4 mps 760 mmHg 84%
    19:00 +28°C° 0.7 mm 4 mps 760 mmHg 87%
    20:00 +27°C° 1.1 mm 4 mps 760 mmHg 88%
    21:00 +27°C° 1.1 mm 4 mps 760 mmHg 89%
    22:00 +27°C° 1.1 mm 4 mps 760 mmHg 89%
    23:00 +27°C° 0.9 mm 4 mps 760 mmHg 89%
    Mostrar más